The 1500 - 3300 metre wide asteroid 2001 CV26 will make a close pass (9.8 Lunar Distances, 0.0252 AU), travelling at 12.31 km/s, to the Earth-Moon system on the 8th October, 2009. At closest approach, the asteroid should brighten to magnitude 12.9. [url=http://ssd.jpl.nasa.gov/sbdb.cgi?sstr=...
|
|
|
|
|
|
Pallas
(
1 2 3 4 5
)
(Preview)
|
Solar System
|
44
|
26091
|
|
|
2 Pallas (Greek ) is an asteroid located in the asteroid belt region of the solar system and was the second to be discovered. It was found and named by astronomer Heinrich Wilhelm Matthäus Olbers on March 28, 1802. Read more Orbital Elements at...
|
|
|
|
|
|
Asteroid 24 Themis
(
1 2
)
(Preview)
|
Solar System
|
12
|
6146
|
|
|
(24) Themis Epoch 2007 Oct. 27.0 TT = JDT 2454400.5 Goffin M 328.35947 (2000.0) P Q n 0.17791088 Peri. 107.89566 -0.80788481 -0.58928891 a 3.1308893 Node 35.99891 +0.53556758 -0.73962459 e 0.1319198 Incl. 0.75953 +0.24594612 -0.32510621 P 5.54 H 7.08 G 0.19 U Ephemeris Date TT R. A. (2000) Decl....
|
|
|
|
|
|
Asteroid 48 Doris
(Preview)
|
Solar System
|
8
|
3513
|
|
|
(48) Doris Epoch 2007 Oct. 27.0 TT = JDT 2454400.5 Goffin M 30.20873 (2000.0) P Q n 0.17970459 Peri. 257.46734 +0.15322085 -0.98816388 a 3.1100206 Node 183.74318 +0.94518606 +0.14874878 e 0.0747882 Incl. 6.55377 +0.28835166 +0.03749600 P 5.48 H 6.90 G 0.15 U Ephemeris Date TT R. A. (2000) Decl. D...
|
|
|
|
|
|
Asteroid 451 Patientia
(
1 2
)
(Preview)
|
Solar System
|
11
|
4885
|
|
|
(451) Patientia Epoch 2007 Oct. 27.0 TT = JDT 2454400.5 Goffin M 46.88176 (2000.0) P Q n 0.18404482 Peri. 340.35149 +0.33438737 -0.90512786 a 3.0609317 Node 89.39445 +0.89598323 +0.21893868 e 0.0772119 Incl. 15.22186 +0.29223132 +0.36443026 P 5.36 H 6.65 G 0.19 U Ephemeris Date TT R. A. (2000) D...
|
|
|
|
|
|
Toutates
(
1 2
)
(Preview)
|
Solar System
|
17
|
13408
|
|
|
A new discovery that could change the way we think about Roman Britain has provided archaeologists with the missing link to a bloodthirsty ancient Celtic warrior god. For years, metal detectorists in and around Lincolnshire have been digging up Roman-era finger rings with the mysterious letters...
|
|
|
|
|
|
Asteroid (197856) Tafelmusik
(Preview)
|
Solar System
|
2
|
2002
|
|
|
There's a new asteroid in the solar system, and its name is Tafelmusik. Well, not actually new - it's been circulating around our sun somewhere between Mars and Jupiter for just over four billion years - but it was assigned a name just last Friday. The International Astronomical Union, the organisat...
|
|
|
|
|
|
Hungaria asteroids
(Preview)
|
Solar System
|
2
|
3643
|
|
|
The Hungaria asteroids are a group of asteroids in the main belt that orbit the Sun between 1.78 and 2.00 AU. The asteroids typically have a low eccentricity (below 0.18) and an inclination of 16 to 34 degrees. They have an orbital period of approximately 2.5 years. They have a resonance with Jupiter...
|
|
|
|
|
|
8TAF2C5
(Preview)
|
Solar System
|
1
|
2748
|
|
|
A magnitude 20.1 asteroid, 8TAF2C5, was discovered by the Mt. Lemmon Survey on the 9th October 2008. H=33.2 Ephemeris Date UT * R.A. (J2000) Decl. Elong. V Motion h "/min P.A. 2008 10 10 08 01 03 08.2 +22 08 57 164.6 23.9 1.22 295.0 2008 10 10 09 01 03 03.6 +22 09 27 164.6 24.0 1.14 295.0 2008 10 10 10 01 0...
|
|
|
|
|
|
9V04E48
(
1 2
)
(Preview)
|
Solar System
|
10
|
6416
|
|
|
The asteroid will make a close pass (21000 km) to the Earth at 21:30 UT, 6th November, 2009. 9V04E48 was discovered (V = 14.7) on the 6th November, 2009.
|
|
|
|
|
|
Asteroid (234) Barbara
(Preview)
|
KMZ
|
4
|
3634
|
|
|
The 44 km wide asteroid (234) Barbara (magnitude 13.1) will occult the magnitude 7.5 star HD 53203 in the constellation Monoceros, at 03:24 UT, 21st November, 2009. The star should dim by 5.6 magnitudes for about 8 seconds. The event is visible from Mexico, Florida, Atlantic, Europe and northern R...
|
|
|
|
|
|
Asteroid (47171) 1999 TC36
(Preview)
|
Solar System
|
3
|
5170
|
|
|
Title: Asteroid (47171) 1999 TC36, A Transneptunian Triple Authors: S. D. Benecchi, K. S. Noll, W. M. Grundy, H. F. Levison We present new analysis of HST images of (47171) 1999 TC36 that confirm it as a triple system. Fits to the point-spread function consistently show that the apparent primary is i...
|
|
|
|
|
|
Asteroid (4486) Mithra
(Preview)
|
Solar System
|
2
|
2837
|
|
|
The 2000 - 4500 metre wide asteroid (4486) Mithra will make a close pass (73.5 Lunar Distances, 0.1890 AU), travelling at 22.64 km/s, to the Earth-Moon system on the 12th March, 2010. See more The Lunar Distance (LD), the distanc...
|
|
|
|
|
|
Asteroid 216 Kleopatra
(
1 2
)
(Preview)
|
Solar System
|
17
|
9234
|
|
|
A movie of an asteroid, made from 23 frames, which were taken over a thirty minute period. This was done by members of Monmouth School and Monmouth Astronomical Research Society (MARS) in the UK. They used the robotic 2m Faulkes Telescope North on the mountain Haleakala, on the Hawaiian island of Mau...
|
|
|
|
|
|
Asteroid Families
(Preview)
|
Solar System
|
5
|
3630
|
|
|
Title: The Size Distributions of Asteroid Families in the SDSS Moving Object Catalog 4 Authors: Alex H. Parker, Zeljko Ivezic, Mario Juric, Robert H. Lupton, Michael D. Sekora, Adam F. Kowalski Asteroid families, traditionally defined as clusters of objects in orbital parameter space, often ha...
|
|
|
|
|
|
Basaltic Asteroids
(Preview)
|
Solar System
|
4
|
2930
|
|
|
Title: The Distribution of Basaltic Asteroids in the Main Belt Authors: Nicholas A. Moskovitz (1), Robert Jedicke (1), Eric Gaidos (2 and 3), Mark Willman (1), David Nesvorny (4), Ronald Fevig (5), Zeljko Ivezic (6) ((1) Institute for Astronomy, Univ. of Hawaii, (2) Dept. of Geology & Geophys...
|
|
|
|
|
|
Asteroid Miepgies
(Preview)
|
Solar System
|
3
|
3726
|
|
|
An asteroid has been named after Miep Gies, the woman who saved the diary of Anne Frank. The International Astronomical Union announced that asteroid Miepgies orbits between Mars and Jupiter and has an estimated diameter of seven kilometres. [url=http://www.rnw.nl/english/article/asteroi...
|
|
|
|
|
|
Asteroid 2002 VE68
(Preview)
|
Solar System
|
3
|
3436
|
|
|
Title: Asteroid 2002 VE68, a quasi-satellite of Venus Authors: Mikkola, S.; Brasser, R.; Wiegert, P.; Innanen, K. The asteroid 2002 VE68 is currently a quasi-satellite of Venus, the first object of this dynamical class to be discovered, and is also the first known co-orbital companion to Venus. O...
|
|
|
|
|
|
Asteroid 2010 AL30
(
1 2 3 4
)
(Preview)
|
Solar System
|
38
|
9731
|
|
|
Orbital elements: 2010 AL30 Earth MOID = 0.0000 AU Epoch 2010 Jan. 4.0 TT = JDT 2455200.5 MPC M 281.40401 (2000.0) P Q n 0.98349499 Peri. 104.60232 -0.78960713 +0.61038481 a 1.0014316 Node 113.05422 -0.58599752 -0.71971978 e 0.3055892 Incl. 3.91707 -0.18200958 -0.33080782 P 1.00 H 27.0 G 0.15 U 7 [...
|
|
|
|
|
|
Asteroid 2003 SQ222
(Preview)
|
Asteroids
|
0
|
1941
|
|
|
A small asteroid, perhaps 3 to 6 meters in diameter - the size of a room or house - came within 88,000 km of Earth late on Friday, September 27 2003. Less than a quarter of the distance to the Moon, this is the closest well-documented Earth encounter of an asteroid that has not struck our atmosphere. Known...
|
|
|
|
|
|
Asteroid 286 Iclea
(Preview)
|
Solar System
|
0
|
2078
|
|
|
Occultation by asteroid 286 Iclea, 15 June 2008 Click to Play | View Details
|
|
|
|
|
|
Asteroid (35107) 1991 VH
(Preview)
|
Solar System
|
0
|
1949
|
|
|
Observations of (35107) 1991 VH in 2008 provide an exceptional opportunity to characterize the dynamics, morphology, and physical properties of a binary (or multiple) system. High resolution images obtained over a suitable range of aspect angles will provide detailed information on the regol...
|
|
|
|
|
|
21782 Davemcdonald
(Preview)
|
Solar System
|
0
|
1856
|
|
|
The IAU has announced the asteroid 1999 - RV239 is now officially named (21782)Davemcdonald, after Dave McDonald of Kildare who is a keen astronomer, specialising in CCD imaging. 21782 Davemcdonald orbits between Mars and Jupiter, and is currently at magnitude 21, however , in mid- 2009 it wil...
|
|
|
|
|
|
Asteroid 2006 FT9
(Preview)
|
Solar System
|
0
|
1714
|
|
|
A mythological hero of the Trojan Wara man the poet Virgil called the single most just man among the Trojans and the best preserver of fairnessnow has a place in the cosmos, roughly the size of Grand Rapids, thanks to Calvin students and faculty. In late August 2008, a rare asteroid discovered at Calvi...
|
|
|
|
|
|
Asteroid 87 Sylvia
(
1 2
)
(Preview)
|
Meteorite News
|
12
|
10145
|
|
|
One of the thousands of minor planets orbiting the Sun has been found to have its own mini planetary system. Astronomer Franck Marchis (University of California, Berkeley, USA) and his colleagues at the Observatoire de Paris (France) have discovered the first triple asteroid system – two small as...
|
|
|
|
|
|
Asteroids Sana and Dina
(Preview)
|
Solar System
|
0
|
2034
|
|
|
The United States National Aeronautics and Space Administration (NASA), the Intel Company and the Massachusetts Institute of Technology have named two newly discovered asteroids in honour of two Lebanese students. The asteroids, 23717-Dina Kaddoura 23331-Sana Zaidan, are named after Sana...
|
|
|
|
|
|
Asteroid seismology
(Preview)
|
Astronomy News
|
2
|
1897
|
|
|
New research suggests that near-Earth encounters can 'shake' asteroids For decades, astronomers have analysed the impact that asteroids could have on Earth. New research examines the opposite scenario: that Earth has considerable influence on asteroids -- and from a distance much larger than...
|
|
|
|
|
|
Asteroid (50687) Paultemple
(Preview)
|
Solar System
|
1
|
2363
|
|
|
Asteroid (50687) 2000 EC117 has been officially designated Asteroid (50687) Paultemple. Paul Temple is a Senior Pastor in Deming, New Mexico. He photometrically studies variable stars and minor planets and carries out spectroscopy with his own instruments. [url=http://ssd.jpl.nasa.gov/...
|
|
|
|
|
|
